Bischofshofen, Austria
Current Conditions -  °F | °C
As of 1:20 PM on Saturday 20 Dec 2014 (Local Time) from LOWS Reporting Station
Broken Clouds Broken Clouds  
Wind Chill: 46°   Ceiling: 5500
Heat Index: 48°   Visibility: 6mi
Dew Point: 39°   Wind: 6mph
Humidity: 71%   Direction: 160°SSE
Pressure: 30.15"   Gusts: NA
Location:  47.42°N, 13.21°E
Report Text: LOWS 201220Z 16005KT 140V220 9999 FEW030 BKN055 09/04 Q1021 NOSIG
Loading
Personal Weather Stations






























Interactive Weather Map New forecast layout! Learn more

10-Day Weather Forecast

Advertisements
Track Severe Weather on mobile